EW2887 Weather Reports


time (UTC)temp
F
wind
direction
speed
knots
gust
knots
rain 1hr
in
rain 24hr
in
rain mn
in
humidity
%
barometer
mb
20260510120049 58 60 13.0 17.4 0.00 0.00 0.00 82 1009.6
20260510114546 59 44 12.2 16.5 0.00 0.00 0.00 82 1009.2
20260510113045 59 31 9.6 13.9 0.00 0.00 0.00 81 1009.2
20260510111539 60 49 8.7 15.6 0.00 0.00 0.00 80 1009.0
20260510110036 60 55 9.6 13.9 0.00 0.00 0.00 80 1008.5
20260510104533 60 57 9.6 13.9 0.00 0.00 0.00 80 1008.4
20260510103031 61 57 8.7 13.9 0.00 0.00 0.00 79 1008.2
20260510101527 61 64 11.3 15.6 0.00 0.00 0.00 79 1007.9
20260510100025 61 36 7.8 12.2 0.00 0.00 0.00 79 1007.7
20260510094523 61 14 8.7 13.9 0.00 0.00 0.00 78 1007.6
20260510093022 61 325 4.3 13.9 0.00 0.00 0.00 78 1008.3
20260510091517 61 360 10.4 16.5 0.00 0.00 0.00 78 1006.6
20260510090016 61 360 7.8 15.6 0.00 0.00 0.00 77 1006.6
20260510084512 61 110 7.8 13.9 0.00 0.00 0.00 76 1006.4
20260510083010 62 94 8.7 15.6 0.00 0.00 0.00 75 1006.2
20260510081509 63 79 12.2 16.5 0.00 0.00 0.00 73 1006.1
20260510080002 64 83 9.6 13.0 0.00 0.00 0.00 73 1005.6
20260510074559 65 78 9.6 15.6 0.00 0.00 0.00 72 1005.1
20260510073113 65 80 11.3 14.8 0.00 0.00 0.00 72 1004.6
20260510071604 66 88 9.6 13.9 0.00 0.00 0.00 71 1004.5
20260510070052 66 58 9.6 13.9 0.00 0.00 0.00 70 1004.4
20260510064555 67 68 10.4 15.6 0.00 0.00 0.00 69 1005.0
20260510063047 68 38 9.6 13.9 0.00 0.00 0.00 68 1005.8
20260510061544 68 24 8.7 13.9 0.00 0.00 0.00 68 1005.8
20260510060041 68 61 8.7 13.0 0.00 0.00 0.00 66 1005.6
20260510054536 69 21 6.1 12.2 0.00 0.00 0.00 64 1005.3
20260510053036 70 67 6.1 10.4 0.00 0.00 0.00 61 1005.1
20260510051532 71 59 9.6 13.9 0.00 0.00 0.00 60 1005.2
20260510050026 72 69 7.0 9.6 0.00 0.00 0.00 56 1004.7
20260510044525 72 355 1.7 7.0 0.00 0.00 0.00 53 1005.1
20260510043024 72 107 7.8 12.2 0.00 0.00 0.00 52 1004.6
20260510041526 74 92 1.7 13.9 0.00 0.00 0.00 48 1004.6
20260510040028 75 111 4.3 13.0 0.00 0.00 0.00 35 1004.7
20260510034531 76 78 1.7 7.0 0.00 0.00 0.00 23 1004.2
20260510033024 77 89 7.0 8.7 0.00 0.00 0.00 21 1003.9
20260510031521 78 90 5.2 9.6 0.00 0.00 0.00 20 1003.5
20260510030020 76 229 1.7 6.1 0.00 0.00 0.00 19 1003.5
20260510024519 78 84 1.7 2.6 0.00 0.00 0.00 18 1003.0
20260510023019 78 82 1.7 3.5 0.00 0.00 0.00 18 1002.5
20260510021531 79 81 0.0 3.5 0.00 0.00 0.00 18 1002.1
20260510020018 80 82 3.5 6.1 0.00 0.00 0.00 17 1001.4
20260510014517 81 76 1.7 4.3 0.00 0.00 0.00 16 1001.2
20260510013017 83 85 5.2 7.0 0.00 0.00 0.00 16 1000.9
20260510011517 84 49 2.6 4.3 0.00 0.00 0.00 15 1000.8
20260510010016 85 48 1.7 5.2 0.00 0.00 0.00 15 1000.7
20260510004518 87 51 3.5 7.8 0.00 0.00 0.00 14 1000.6
20260510003015 88 19 1.7 6.1 0.00 0.00 0.00 13 1000.7
20260510001514 89 94 2.6 5.2 0.00 0.00 0.00 13 1000.8
20260510000017 90 335 2.6 4.3 0.00 0.00 0.00 12 1000.8
20260509234511 92 298 2.6 7.0 0.00 0.00 0.00 11 1001.1
20260509233009 91 321 6.1 9.6 0.00 0.00 0.00 12 1001.2
20260509231508 90 37 0.9 5.2 0.00 0.00 0.00 12 1001.4
20260509230007 91 360 6.1 11.3 0.00 0.00 0.00 11 1001.6
20260509224506 91 345 7.0 14.8 0.00 0.00 0.00 10 1001.6
20260509223003 92 293 7.8 13.9 0.00 0.00 0.00 12 1001.7
20260509221503 93 279 11.3 18.2 0.00 0.00 0.00 12 1001.8
20260509220003 92 300 7.8 25.2 0.00 0.00 0.00 12 1001.7
20260509214501 93 355 7.0 13.9 0.00 0.00 0.00 13 1001.9
20260509213101 93 242 9.6 17.4 0.00 0.00 0.00 12 1002.0
20260509211601 93 263 9.6 14.8 0.00 0.00 0.00 13 1002.4
20260509210114 92 306 10.4 17.4 0.00 0.00 0.00 13 1002.7
20260509204559 93 296 8.7 17.4 0.00 0.00 0.00 14 1002.8
20260509203050 93 284 9.6 17.4 0.00 0.00 0.00 14 1003.0
20260509201556 92 265 12.2 20.0 0.00 0.00 0.00 16 1003.2
20260509200058 92 321 7.8 14.8 0.00 0.00 0.00 17 1003.3
20260509194543 91 360 7.8 13.0 0.00 0.00 0.00 19 1003.6
20260509193043 87 278 8.7 15.6 0.00 0.00 0.00 21 1003.8
20260509191540 89 270 7.8 20.0 0.00 0.00 0.00 19 1004.2
20260509190041 90 304 7.0 16.5 0.00 0.00 0.00 19 1004.4
20260509184535 88 360 6.1 13.9 0.00 0.00 0.00 21 1004.7
20260509183032 85 360 13.0 17.4 0.00 0.00 0.00 22 1005.1
20260509181530 86 360 9.6 20.9 0.00 0.00 0.00 22 1005.2
20260509180026 83 244 14.8 21.7 0.00 0.00 0.00 24 1005.6
20260509174523 82 235 10.4 20.9 0.00 0.00 0.00 25 1005.6
20260509173020 81 189 9.6 16.5 0.00 0.00 0.00 27 1005.8
20260509171527 80 190 10.4 20.9 0.00 0.00 0.00 28 1006.1
20260509170025 80 194 13.0 19.1 0.00 0.00 0.00 29 1006.3
20260509164511 79 151 4.3 16.5 0.00 0.00 0.00 32 1006.5
20260509163011 78 148 9.6 19.1 0.00 0.00 0.00 33 1006.6
20260509161505 76 170 11.3 16.5 0.00 0.00 0.00 35 1006.9
20260509160002 75 204 13.0 16.5 0.00 0.00 0.00 39 1007.2
20260509154601 74 151 7.0 14.8 0.00 0.00 0.00 40 1007.3
20260509153100 73 200 4.3 14.8 0.00 0.00 0.00 40 1007.6
20260509151600 73 133 7.8 13.9 0.00 0.00 0.00 39 1007.6
20260509150055 72 123 6.1 12.2 0.00 0.00 0.00 43 1007.9
20260509144552 73 107 1.7 7.0 0.00 0.00 0.00 44 1008.0
20260509143049 71 355 1.7 3.5 0.00 0.00 0.00 45 1008.2
20260509141547 70 355 0.9 4.3 0.00 0.00 0.00 45 1008.4
20260509140058 70 311 2.6 4.3 0.00 0.00 0.00 45 1008.6
20260509134602 67 316 2.6 4.3 0.00 0.00 0.00 51 1008.7
20260509133039 65 315 0.0 1.7 0.00 0.00 0.00 51 1008.6
20260509131548 63 315 0.0 1.7 0.00 0.00 0.00 52 1008.7
20260509130040 59 342 1.7 3.5 0.00 0.00 0.00 56 1008.8
20260509124536 56 186 0.0 2.6 0.00 0.00 0.00 60 1008.5
20260509123035 55 186 2.6 6.1 0.00 0.00 0.00 60 1008.4
20260509121536 54 188 3.5 6.1 0.00 0.00 0.00 59 1008.3